MST,Max TemperatureF,Mean TemperatureF,Min TemperatureF,Max Dew PointF,MeanDew PointF,Min DewpointF,Max Humidity, Mean Humidity, Min Humidity, Max Sea Level PressureIn, Mean Sea Level PressureIn, Min Sea Level PressureIn, Max VisibilityMiles, Mean VisibilityMiles, Min VisibilityMiles, Max Wind SpeedMPH, Mean Wind SpeedMPH, Max Gust SpeedMPH,PrecipitationIn, CloudCover, Events, WindDirDegrees
2012-3-1,44,31,17,23,17,13,92,60,27,30.00,29.91,29.81,10,10,10,29,12,38,0.00,1,,229
2012-3-2,36,27,18,19,-1,-10,63,40,17,30.26,30.05,29.76,10,10,10,28,12,39,0.00,0,,20
2012-3-3,48,34,19,13,5,-7,60,41,21,30.40,30.30,30.20,10,10,10,17,5,25,0.00,0,,71
2012-3-4,54,35,16,19,14,12,88,54,19,30.40,30.29,30.21,10,10,10,17,5,23,0.00,0,,87
2012-3-5,61,40,18,21,14,6,80,46,12,30.27,30.14,29.98,10,10,10,16,4,21,0.00,0,,213
2012-3-6,55,40,24,18,13,5,74,44,14,29.96,29.67,29.36,10,10,10,45,21,54,0.00,1,,215
2012-3-7,38,30,22,21,14,7,75,54,33,30.02,29.75,29.42,10,8,2,23,10,33,T,6,Snow,256
2012-3-8,49,36,22,20,17,12,77,51,25,30.36,30.20,30.01,10,10,7,26,13,41,T,1,Snow,38
2012-3-9,46,35,24,21,18,15,75,52,28,30.35,30.25,30.14,10,10,10,23,10,32,0.00,0,,60
2012-3-10,52,38,24,24,20,11,81,51,20,30.12,30.03,29.93,10,10,10,20,8,26,T,2,,49
2012-3-11,52,38,24,22,17,14,74,49,24,30.07,29.98,29.93,10,10,10,26,10,33,0.00,0,,239
2012-3-12,57,39,21,18,9,2,71,41,11,30.10,30.03,29.99,10,10,10,21,6,26,0.00,0,,216
2012-3-13,58,40,21,14,0,-8,57,33,8,30.05,30.02,29.98,10,10,10,28,8,32,0.00,0,,227
2012-3-14,59,39,19,10,4,-1,46,28,10,30.16,30.07,30.01,10,10,10,22,6,26,0.00,0,,212
2012-3-15,62,42,22,15,11,7,65,39,13,30.19,30.10,30.03,10,10,10,18,4,22,0.00,0,,206
2012-3-16,61,43,25,22,15,12,63,39,15,30.03,29.94,29.85,10,10,10,24,8,31,0.00,0,,218
2012-3-17,53,41,28,36,26,16,92,58,24,29.83,29.67,29.50,10,8,2,41,16,53,0.28,4,Rain-Snow,201
2012-3-18,36,28,20,32,22,18,100,91,81,29.76,29.62,29.38,10,2,0,31,13,48,1.39,8,Fog-Snow,216
2012-3-19,30,22,13,22,18,11,91,77,62,29.99,29.74,29.66,10,5,0,17,8,23,0.14,7,Fog-Snow,222
2012-3-20,40,28,16,22,16,12,88,62,35,30.17,30.07,29.94,10,10,10,21,5,28,0.00,0,,337
2012-3-21,55,34,12,27,20,10,92,59,26,30.21,30.11,30.02,10,10,10,15,2,20,0.00,0,,24
2012-3-22,60,38,16,26,20,13,92,55,17,30.11,30.02,29.98,10,10,10,16,3,18,0.00,0,,201
2012-3-23,56,41,25,30,25,22,88,59,30,30.09,30.06,30.01,10,10,10,22,6,25,0.00,0,,227
2012-3-24,59,43,26,30,25,23,85,55,25,30.10,30.04,29.99,10,10,10,17,4,24,0.00,0,,209
2012-3-25,56,42,27,34,25,22,85,56,27,30.07,29.90,29.74,10,10,10,30,13,39,0.00,0,,208
2012-3-26,53,41,28,34,28,18,85,56,27,30.06,29.93,29.75,10,10,10,30,13,39,0.00,2,,219
2012-3-27,58,41,23,27,21,7,92,54,15,30.08,30.03,30.00,10,10,10,21,5,28,0.00,0,,215
2012-3-28,61,43,25,21,18,14,75,46,16,30.05,30.00,29.95,10,10,10,21,7,26,0.00,0,,232
2012-3-29,61,44,26,25,21,19,75,48,20,30.02,29.98,29.94,10,10,10,20,5,26,0.00,0,,218
2012-3-30,66,47,28,27,23,17,72,44,16,30.00,29.96,29.92,10,10,10,20,6,26,0.00,0,,236
2012-3-31,65,48,30,31,25,20,75,48,21,30.00,29.89,29.72,10,10,10,30,9,39,0.00,0,,220